Погода в Стен

Франция     48°57′14″N   2°23′31″E
темп.,
°C
ветер,
м/с
пор.,
м/с
влажн.,
%
обл.,
%
осадки,
мм/ч
давл.,
гПа
погр.,
м
8 августа, пн
пн823:00+19ссв411390 0.0 1022405
02:00+16ссв412520 0.0 1023314
05:00+14ссв39670 0.0 1023229
08:00+15ссв48665 0.0 1024233
11:00+23св57376 0.0 10241012
14:00+28ссв56229 0.0 10231915
17:00+29ссв56215 0.0 10222093
20:00+27ссв57265 0.0 10221451
9 августа, вт
вт923:00+22ссв512395 0.0 1024483
02:00+19ссв512575 0.0 1025368
05:00+16ссв49715 0.0 1024233
08:00+17ссв48665 0.0 1025243
11:00+25ссв57395 0.0 1025839
14:00+30ссв56255 0.0 10231927
17:00+32ссв56210 0.0 10212491
20:00+30ссв57245 0.0 10211225
10 августа, ср
ср1023:00+25ссв513340 0.0 1022522
02:00+21ссв512490 0.0 1022321
05:00+18св37565 0.0 1022157
08:00+19св25515 0.0 1022145
11:00+28всв35274 0.0 1022793
14:00+33всв46190 0.0 10202764
17:00+34всв56160 0.0 10183071
20:00+32всв46180 0.0 10171682
11 августа, чт
чт1123:00+26в38250 0.0 1018192
02:00+23всв393017 0.0 1018238
05:00+21всв253524 0.0 1019157
08:00+21всв25351 0.0 1019157
11:00+29в48220 0.0 10181700
14:00+33всв68155 0.0 10172399
17:00+35всв67120 0.0 10152757
20:00+33всв47130 0.0 10141409
12 августа, пт
пт1223:00+26св392047 0.0 1015200
02:00+23всв411265 0.0 1015249
05:00+21всв37304 0.0 1015177
08:00+21св38325 0.0 1015203
11:00+31в68191 0.0 10141284
14:00+35в56140 0.0 10132354
17:00+36всв55120 0.0 10112917
20:00+34всв57140 0.0 10111062